Change the Weather History Date:

Wednesday, February 20, 2013

  Actual Average Record
Temperature  
Mean Temperature 20 °F 23 °F  
Max Temperature 23 °F 32 °F 57 °F (1983)
Min Temperature 16 °F 15 °F -22 °F (2015)
Degree Days  
Heating Degree Days 45 42  
Month to date heating degree days 877 861  
Since 1 July heating degree days 4556 5017  
Moisture  
Dew Point 12 °F    
Average Humidity 74    
Maximum Humidity 80    
Minimum Humidity 67    
Precipitation  
Precipitation 0.02 in 0.05 in 1.19 in (2002)
Month to date precipitation 1.14 1.07  
Year to date precipitation 3.36 3.89  
Snow  
Snow 0.00 in - - ()
Snow Depth 12.00 in    
Sea Level Pressure  
Sea Level Pressure 30.09 in    
Wind  
Wind Speed 16 mph (NNW)    
Max Wind Speed 24 mph    
Max Gust Speed 31 mph    
Visibility 2 miles    
Events Fog , Snow    
T = Trace of Precipitation, MM = Missing Value Source: NWS Daily Summary

Daily Weather History Graph

Daily Weather History Graph

Search for Another Location

Airport or City:

Trip Planner

Search our weather history database for the weather conditions in past years. The results will help you decide how hot, cold, wet, or windy it might be!

Date:

Astronomy

Feb. 20, 2013 Rise Set
Actual Time 7:34 AM EST 6:18 PM EST
Civil Twilight 7:04 AM EST 6:47 PM EST
Nautical Twilight 6:30 AM EST 7:21 PM EST
Astronomical Twilight 5:57 AM EST 7:55 PM EST
Moon 1:31 PM EST (2/20) 4:01 AM EST (2/20)
Length of Visible Light 11h 43m
Length of Day
10h 43m
Waxing Gibbous, 76% of the Moon is Illuminated
Feb 20
Waxing Gibbous
Feb 25
Full
Mar 4
Last Quarter
Mar 11
New
Mar 19
First Quarter

Hourly Weather History & Observations

Time (EST) Temp. Windchill Dew Point Humidity Pressure Visibility Wind Dir Wind Speed Gust Speed Precip Events Conditions
12:30 AM 15.8 °F -0.2 °F 10.4 °F 79% 29.88 in 2.0 mi WNW 17.3 mph 23.0 mph 0.00 in Snow Light Snow
12:53 AM 16.0 °F 0.6 °F 10.9 °F 81% 29.92 in 1.5 mi WNW 16.1 mph - 0.00 in Snow Light Snow
1:06 AM 15.8 °F 1.4 °F 10.4 °F 79% 29.89 in 1.5 mi WNW 13.8 mph - 0.00 in Snow Light Snow
1:16 AM 15.8 °F 0.3 °F 10.4 °F 79% 29.89 in 3.0 mi WNW 16.1 mph 26.5 mph 0.00 in Snow Light Snow
1:53 AM 16.0 °F 0.6 °F 10.0 °F 77% 29.94 in 2.5 mi WNW 16.1 mph 27.6 mph 0.00 in Snow Light Snow
2:11 AM 15.8 °F -1.5 °F 10.4 °F 79% 29.91 in 1.0 mi NW 20.7 mph 28.8 mph 0.00 in Snow Light Snow
2:19 AM 17.6 °F 2.7 °F 12.2 °F 79% 29.92 in 0.8 mi NW 16.1 mph 25.3 mph 0.00 in Snow Light Snow
2:27 AM 15.8 °F -0.2 °F 12.2 °F 86% 29.92 in 0.5 mi NW 17.3 mph 24.2 mph 0.00 in Fog , Snow Snow
2:31 AM 15.8 °F 2.7 °F 12.2 °F 86% 29.92 in 0.2 mi NW 11.5 mph 24.2 mph 0.00 in Fog , Snow Heavy Snow
2:39 AM 17.6 °F 3.2 °F 12.2 °F 79% 29.93 in 0.5 mi NW 15.0 mph 23.0 mph 0.00 in Snow Snow
2:53 AM 17.1 °F 2.5 °F 12.0 °F 81% 29.96 in 1.5 mi NW 15.0 mph 26.5 mph 0.00 in Snow Light Snow
2:59 AM 17.6 °F 1.3 °F 12.2 °F 79% 29.93 in 1.8 mi NW 19.6 mph - 0.00 in Snow Light Snow
3:11 AM 17.6 °F 1.7 °F 10.4 °F 73% 29.94 in 2.0 mi NW 18.4 mph 25.3 mph 0.00 in Snow Light Snow
3:40 AM 17.6 °F 1.7 °F 8.6 °F 68% 29.94 in 4.0 mi NNW 18.4 mph 25.3 mph 0.02 in Snow Light Snow
3:53 AM 17.1 °F 2.0 °F 9.0 °F 71% 29.99 in 3.0 mi NNW 16.1 mph 24.2 mph 0.02 in Snow Light Snow
3:57 AM 17.6 °F 1.7 °F 10.4 °F 73% 29.95 in 1.8 mi NNW 18.4 mph 25.3 mph 0.00 in Snow Light Snow
4:14 AM 17.6 °F 2.2 °F 10.4 °F 73% 29.96 in 1.2 mi NNW 17.3 mph 28.8 mph 0.00 in Snow Light Snow
4:45 AM 17.6 °F 4.3 °F 10.4 °F 73% 29.97 in 1.5 mi NNW 12.7 mph 26.5 mph 0.00 in Snow Light Snow
4:53 AM 17.1 °F 1.5 °F 10.9 °F 77% 30.01 in 1.5 mi NNW 17.3 mph 24.2 mph 0.00 in Snow Light Snow
5:00 AM 17.6 °F 1.7 °F 10.4 °F 73% 29.98 in 0.8 mi NNW 18.4 mph 27.6 mph 0.00 in Snow Light Snow
5:16 AM 17.6 °F 4.3 °F 12.2 °F 79% 29.99 in 0.8 mi NW 12.7 mph 20.7 mph 0.00 in Snow Light Snow
5:25 AM 17.6 °F 1.7 °F 12.2 °F 79% 29.99 in 1.0 mi NW 18.4 mph 23.0 mph 0.00 in Snow Light Snow
5:45 AM 17.6 °F 2.7 °F 12.2 °F 79% 30.00 in 0.8 mi NNW 16.1 mph 25.3 mph 0.00 in Snow Light Snow
5:53 AM 17.1 °F 1.0 °F 12.0 °F 81% 30.05 in 0.8 mi NNW 18.4 mph 26.5 mph 0.00 in Snow Light Snow
6:24 AM 17.6 °F 3.2 °F 12.2 °F 79% 30.02 in 1.0 mi NNW 15.0 mph 21.9 mph 0.00 in Snow Light Snow
7:21 AM 17.6 °F 3.7 °F 10.4 °F 73% 30.04 in 1.0 mi NW 13.8 mph 26.5 mph 0.00 in Snow Light Snow
7:40 AM 17.6 °F 0.5 °F 8.6 °F 68% 30.05 in 1.0 mi NW 21.9 mph 31.1 mph 0.00 in Snow Light Snow
7:53 AM 17.1 °F 1.0 °F 10.0 °F 74% 30.10 in 1.0 mi NW 18.4 mph 28.8 mph 0.00 in Snow Light Snow
8:36 AM 17.6 °F 1.3 °F 10.4 °F 73% 30.08 in 0.8 mi NNW 19.6 mph 28.8 mph 0.00 in Snow Light Snow
8:53 AM 17.1 °F 2.0 °F 12.0 °F 81% 30.12 in 0.8 mi NNW 16.1 mph 24.2 mph 0.00 in Snow Light Snow
9:05 AM 17.6 °F 1.7 °F 10.4 °F 73% 30.09 in 1.5 mi NW 18.4 mph 25.3 mph 0.00 in Snow Light Snow
9:53 AM 18.0 °F 1.7 °F 10.9 °F 74% 30.14 in 1.0 mi NNW 19.6 mph 26.5 mph 0.00 in Snow Light Snow
9:59 AM 17.6 °F 3.2 °F 12.2 °F 79% 30.10 in 0.5 mi NNW 15.0 mph 26.5 mph 0.00 in Snow Snow
10:09 AM 17.6 °F 3.7 °F 10.4 °F 73% 30.11 in 1.5 mi North 13.8 mph 20.7 mph 0.00 in Snow Light Snow
10:27 AM 17.6 °F 4.3 °F 10.4 °F 73% 30.11 in 3.0 mi NNW 12.7 mph 24.2 mph 0.00 in Snow Light Snow
11:53 AM 18.0 °F 2.6 °F 9.0 °F 68% 30.18 in 6.0 mi NNW 17.3 mph 26.5 mph 0.00 in Snow Light Snow
12:53 PM 18.0 °F 3.1 °F 9.0 °F 68% 30.18 in 5.0 mi NNW 16.1 mph 27.6 mph 0.00 in Snow Light Snow
1:53 PM 19.0 °F 7.5 °F 10.9 °F 71% 30.18 in 3.0 mi North 10.4 mph - 0.00 in Snow Light Snow
2:53 PM 19.9 °F 6.2 °F 10.9 °F 68% 30.20 in 3.0 mi NNW 15.0 mph 23.0 mph 0.00 in Snow Light Snow
3:20 PM 19.4 °F 7.2 °F 12.2 °F 74% 30.16 in 2.0 mi NNW 11.5 mph - 0.00 in Snow Light Snow
3:24 PM 19.4 °F 6.6 °F 12.2 °F 74% 30.16 in 1.2 mi NNW 12.7 mph - 0.00 in Snow Light Snow
3:53 PM 19.9 °F 7.3 °F 14.0 °F 78% 30.21 in 2.0 mi NNW 12.7 mph 20.7 mph 0.00 in Snow Light Snow
4:50 PM 21.2 °F 9.5 °F 14.0 °F 74% 30.19 in 1.5 mi NNW 11.5 mph 20.7 mph 0.00 in Snow Light Snow
4:53 PM 21.0 °F 7.6 °F 14.0 °F 74% 30.24 in 1.5 mi NNW 15.0 mph 24.2 mph 0.00 in Snow Light Snow
5:28 PM 19.4 °F 5.0 °F 12.2 °F 74% 30.22 in 2.0 mi NNW 16.1 mph 23.0 mph 0.00 in Snow Light Snow
5:53 PM 21.0 °F 6.6 °F 14.0 °F 74% 30.27 in 2.0 mi NNW 17.3 mph 24.2 mph 0.00 in Snow Light Snow
6:07 PM 19.4 °F 5.5 °F 14.0 °F 80% 30.23 in 1.0 mi NNW 15.0 mph 20.7 mph 0.00 in Snow Light Snow
6:30 PM 21.2 °F 8.3 °F 15.8 °F 80% 30.24 in 2.0 mi NNW 13.8 mph - 0.00 in Snow Light Snow
6:42 PM 21.2 °F 8.9 °F 15.8 °F 80% 30.24 in 1.5 mi NNW 12.7 mph 21.9 mph 0.00 in Snow Light Snow
6:53 PM 21.0 °F 9.9 °F 16.0 °F 81% 30.28 in 1.5 mi NNW 10.4 mph 20.7 mph 0.00 in Snow Light Snow
7:03 PM 21.2 °F 8.3 °F 15.8 °F 80% 30.24 in 2.0 mi NNW 13.8 mph 21.9 mph 0.00 in Snow Light Snow
8:09 PM 21.2 °F 8.3 °F 15.8 °F 80% 30.26 in 2.0 mi NNW 13.8 mph 23.0 mph 0.00 in Snow Light Snow
8:53 PM 21.9 °F 11.7 °F 16.0 °F 78% 30.29 in 2.5 mi NNW 9.2 mph 20.7 mph 0.00 in Snow Light Snow
9:06 PM 23.0 °F 10.1 °F 15.8 °F 74% 30.26 in 4.0 mi NNW 15.0 mph 23.0 mph 0.00 in Snow Light Snow
9:53 PM 23.0 °F 9.6 °F 15.1 °F 72% 30.30 in 5.0 mi NNW 16.1 mph 25.3 mph 0.00 in Snow Light Snow
10:53 PM 23.0 °F 11.7 °F 15.1 °F 72% 30.29 in 7.0 mi North 11.5 mph 23.0 mph 0.00 in Snow Light Snow
11:53 PM 23.0 °F 9.6 °F 15.1 °F 72% 30.29 in 8.0 mi North 16.1 mph 23.0 mph 0.00 in   Overcast